Vertical_Velocity
0 -1 0 0 2 1 1 0 -1 -2 0 -1 -1 -2 -0 0 0 -0 -1 -1 -1 -2 -1 -2 0 -1 -2 -2 -1 -2 -1 1 -16 11 -4 5 1 -3 -1 -1 -1 -2 -0
-0 -0 1 -1 1 0 0 0 -0 1 0 -1 -1 1 -1 0 -0 -0 -1 -0 -0 -1 -0 -2 -1 -1 -1 -0 -2 1 -4 3 -7 -16 7 3 2 2 1 -2 -0 1 -3
0 0 -1 -1 1 0 1 0 0 -0 -0 -1 -0 -2 -1 -1 -0 -0 1 -0 -1 -1 -0 -0 1 1 0 -2 -0 -3 -1 -1 3 -9 -6 4 3 0 3 3 -2 1 -2
-1 -1 -0 0 -0 1 1 0 1 1 -1 -1 -1 -2 -2 -0 1 0 -1 1 1 1 -0 2 2 0 -1 1 1 3 1 -3 5 -2 -8 -3 1 5 -5 2 -2 -0 -2
1 -1 -1 -1 0 2 1 1 -0 -1 -1 -1 -2 0 0 1 -1 -0 0 -0 -0 -1 2 1 -1 -0 2 2 -6 4 0 -0 -1 -0 -6 -1 5 -2 1 3 -4 1 1
-0 -1 -1 1 1 2 1 -1 -1 -1 -1 -1 0 1 -1 -1 0 -1 -4 -3 -0 -0 -1 2 -0 -0 2 0 3 5 3 -5 -1 2 -5 -1 -1 5 4 3 3 2 -2
0 -1 0 0 1 1 -1 -1 -1 -1 0 0 -1 -1 0 -1 -2 -2 -0 -1 -1 1 -2 -3 0 2 0 -4 0 1 3 9 6 -0 -3 5 -4 3 7 2 2 6 3
-1 1 -0 -1 1 -0 -1 -1 0 -0 -1 -2 -1 -2 -1 -2 -0 -2 -0 -0 1 1 2 1 -1 -1 2 -5 -4 -1 -0 1 1 -0 0 -7 -2 -5 2 2 1 1 -1
1 -1 -0 0 0 0 1 0 -1 -2 -1 0 -0 -1 -3 0 -2 -2 -4 -0 2 2 0 -0 -2 -1 -1 1 -6 -3 -3 -1 0 1 0 3 4 1 3 2 -1 0 -5
-0 -0 -0 1 1 -0 -1 -3 -1 1 0 -2 -2 -1 -2 -1 -2 -3 -4 -1 -1 -3 1 -1 -0 2 -1 1 -1 -2 -7 -2 -5 -1 3 -1 -0 3 4 7 11 -0 2
-1 0 1 1 -1 -2 -1 2 1 -0 -2 -1 -1 -3 -3 -5 -0 -2 -2 -3 -5 -5 -1 2 2 2 2 1 4 2 0 -1 -1 -2 -1 -1 -2 -1 4 19 26 3 5
0 1 -1 -2 0 2 1 -1 -2 -2 -2 -3 -4 -2 -1 -1 -2 -0 0 -1 1 -6 -3 1 -0 1 2 1 2 1 1 0 -0 0 -0 -1 -2 -1 -1 -4 -2 -1 0
-1 -1 1 2 0 -1 -2 -2 -4 -3 -4 -3 -3 -1 -0 -1 1 -2 -3 -2 0 -2 -1 -0 -2 -1 0 1 3 1 0 1 -1 -1 -1 -1 1 -1 -3 -2 -1 -0 0
2 2 -0 -1 -1 -2 -3 -2 -2 -3 -3 -3 -2 -1 -1 -0 -2 0 -1 3 3 0 -2 1 -2 -1 1 -1 -1 0 0 0 -1 -0 -1 -1 0 0 -1 -1 -2 -1 -4
-0 -0 -1 -3 -3 -2 -2 -1 -1 -3 -4 -4 -3 -1 -3 -0 1 1 -5 -4 -4 -3 -5 0 1 0 0 -1 0 -1 1 0 0 -0 -1 -0 1 -0 1 -1 -1 -1 -2
-1 -1 -2 -2 -2 -3 -3 -2 -4 2 4 1 -2 -6 -1 -3 -1 -2 0 1 -0 -2 0 -3 -1 -1 -2 -3 -2 -1 -0 -1 -1 -1 -1 -1 -1 -0 0 0 -1 -1 -0
-1 -1 -1 -2 -3 -3 -2 -2 -1 4 -2 -1 -1 0 0 -1 1 -3 -3 1 -2 -3 -0 -0 -2 -3 -2 -1 -1 -1 -1 -0 -0 -1 -1 -1 -0 0 -1 0 -0 -1 1
-1 -2 -3 -2 -2 -2 -3 -2 -2 -4 -3 3 3 -1 1 -1 -0 -2 -2 -1 1 3 1 -2 -2 -2 -1 -0 1 0 0 0 0 -0 0 0 -0 -1 1 0 -0 0 0
-2 -2 -2 -2 -2 -2 -3 -4 -5 -3 -4 -4 -2 2 -2 1 -1 -3 -1 -3 -1 -0 0 -0 -2 -1 -1 -0 -0 -1 -1 -1 -1 -1 0 0 -0 -0 0 -0 1 1 0
-2 -2 -2 -3 -3 -1 -3 -2 -2 -3 -2 -2 -1 -5 -1 1 -1 -1 -0 -1 0 -0 -0 -1 -2 -1 -1 -1 -1 -1 -1 -1 -0 -0 -1 -0 -0 -0 -0 -0 0 0 1
-1 -3 -2 -2 -2 -2 -4 -3 -2 -2 -2 -3 2 -2 -4 -2 -1 -2 -0 1 1 0 0 -1 -1 -0 -1 -1 -1 -2 -1 -1 -0 -1 -0 0 0 0 0 1 0 0 1
-2 -2 -1 -2 -1 0 -1 -1 -3 -2 -2 -6 1 2 -3 -0 -0 -2 -0 1 0 -0 -0 -1 0 0 0 -0 -0 -0 -0 0 0 0 -1 -1 0 1 1 1 1 1 1
-1 -1 -1 1 0 1 -0 -0 -2 -1 -0 -5 -1 -1 -3 -1 -0 -2 1 0 -0 1 -1 0 -0 0 -0 -0 0 0 1 1 1 -0 0 1 1 0 0 1 1 1 1
-0 -0 1 0 0 -0 -1 -0 -2 -1 -2 -3 -1 -2 -2 -1 -1 -1 0 -0 0 -0 -0 0 0 1 0 0 1 -0 -0 -0 -0 -0 0 1 0 -0 0 0 1 0 0
-0 0 -1 -3 -2 -1 0 -2 -4 -0 -1 -2 -1 -2 -1 -1 -1 -1 -1 -1 -0 -0 -0 -0 1 0 -0 0 0 -0 0 0 1 1 0 -0 0 0 0 0 0 1 1
-0 -3 1 1 -1 -2 0 -3 -1 -1 -0 0 -3 -1 -1 -1 0 -0 0 0 -1 -1 -1 0 0 0 0 0 0 0 0 1 1 0 0 1 1 0 0 0 -0 -1 -1
Height
3087 3088 3088 3089 3089 3089 3088 3087 3085 3084 3082 3081 3079 3076 3074 3071 3068 3065 3062 3059 3056 3052 3049 3045 3042 3037 3032 3028 3024 3018 3014 3009 3002 3002 2997 2996 2993 2989 2988 2984 2982 2981 2980
3082 3084 3084 3085 3085 3084 3083 3081 3080 3078 3077 3075 3073 3070 3068 3065 3062 3059 3055 3052 3048 3045 3042 3037 3033 3028 3023 3018 3013 3008 3003 2999 2993 2989 2986 2984 2982 2979 2978 2973 2972 2969 2968
3078 3080 3080 3081 3080 3079 3078 3076 3074 3073 3071 3069 3067 3065 3062 3059 3055 3052 3048 3044 3041 3037 3033 3028 3024 3019 3014 3009 3003 2997 2992 2988 2983 2978 2975 2972 2969 2966 2965 2963 2960 2957 2956
3075 3075 3076 3075 3075 3074 3072 3071 3069 3067 3065 3064 3061 3058 3055 3052 3048 3044 3041 3037 3032 3028 3024 3019 3014 3009 3003 2998 2992 2987 2981 2976 2971 2965 2961 2958 2955 2954 2949 2948 2947 2945 2943
3070 3070 3070 3070 3070 3069 3067 3066 3064 3062 3060 3058 3055 3052 3049 3045 3041 3037 3033 3028 3024 3019 3014 3009 3003 2997 2991 2986 2979 2975 2969 2964 2959 2954 2949 2945 2942 2939 2937 2934 2932 2931 2931
3065 3065 3065 3065 3065 3064 3062 3060 3059 3057 3055 3052 3049 3045 3042 3038 3034 3029 3025 3020 3014 3009 3004 2998 2992 2986 2980 2975 2969 2962 2957 2951 2948 2943 2938 2933 2930 2929 2927 2925 2922 2921 2919
3060 3061 3061 3061 3060 3059 3057 3056 3054 3052 3049 3046 3042 3039 3035 3031 3027 3022 3016 3010 3004 2999 2993 2987 2981 2975 2969 2963 2958 2952 2947 2942 2936 2931 2925 2923 2920 2919 2918 2916 2915 2913 2911
3057 3057 3057 3057 3056 3055 3053 3051 3049 3046 3043 3039 3036 3032 3027 3023 3018 3013 3007 3001 2995 2988 2982 2976 2970 2965 2959 2952 2946 2941 2935 2931 2926 2920 2916 2913 2911 2909 2908 2906 2905 2904 2904
3053 3053 3053 3053 3051 3050 3048 3045 3043 3040 3036 3033 3029 3025 3020 3015 3009 3004 2997 2991 2985 2978 2972 2967 2961 2954 2948 2942 2935 2929 2924 2921 2917 2913 2909 2905 2903 2902 2900 2898 2897 2896 2894
3050 3050 3049 3048 3047 3045 3042 3040 3036 3034 3030 3026 3022 3016 3011 3007 3001 2994 2987 2980 2975 2969 2963 2958 2953 2945 2938 2933 2926 2919 2913 2911 2907 2904 2901 2898 2896 2893 2892 2890 2889 2887 2887
3046 3045 3045 3043 3041 3039 3036 3034 3031 3027 3023 3018 3013 3010 3004 2998 2992 2985 2978 2971 2965 2959 2954 2949 2943 2936 2929 2923 2917 2911 2906 2902 2899 2896 2892 2890 2888 2886 2885 2883 2882 2881 2879
3042 3041 3040 3038 3036 3034 3031 3028 3024 3020 3016 3012 3007 3001 2995 2989 2982 2977 2970 2964 2958 2950 2946 2939 2932 2926 2919 2913 2907 2902 2898 2894 2891 2888 2885 2882 2880 2878 2877 2875 2874 2872 2870
3037 3036 3035 3033 3031 3028 3025 3021 3018 3014 3009 3004 2998 2992 2986 2980 2974 2967 2961 2955 2950 2943 2936 2929 2922 2916 2909 2903 2898 2893 2889 2886 2883 2879 2877 2874 2872 2869 2867 2865 2864 2862 2860
3033 3031 3029 3027 3025 3022 3019 3016 3011 3006 3001 2996 2990 2984 2977 2971 2965 2959 2953 2947 2942 2935 2928 2921 2914 2907 2901 2895 2889 2885 2881 2878 2875 2872 2869 2867 2864 2861 2859 2857 2855 2854 2852
3027 3026 3024 3021 3019 3015 3012 3008 3004 2998 2993 2987 2981 2975 2968 2963 2957 2951 2944 2939 2932 2926 2919 2913 2907 2900 2894 2888 2883 2878 2874 2871 2869 2866 2863 2861 2858 2856 2854 2851 2849 2847 2846
3022 3020 3018 3015 3012 3008 3004 3000 2995 2992 2987 2980 2973 2967 2962 2956 2949 2944 2938 2933 2927 2920 2913 2907 2901 2895 2889 2883 2878 2873 2869 2866 2863 2860 2858 2856 2853 2851 2848 2847 2845 2843 2843
3017 3015 3012 3009 3005 3001 2997 2992 2988 2984 2978 2973 2967 2962 2956 2950 2943 2937 2932 2926 2920 2914 2909 2903 2897 2893 2887 2881 2875 2871 2867 2863 2860 2858 2855 2853 2851 2849 2847 2845 2844 2843 2842
3011 3008 3005 3002 2998 2994 2990 2985 2980 2975 2971 2967 2961 2954 2948 2942 2937 2931 2926 2920 2915 2910 2904 2899 2895 2890 2885 2880 2875 2871 2867 2863 2860 2858 2855 2853 2851 2849 2847 2845 2843 2842 2840
3005 3002 2999 2995 2992 2987 2983 2978 2973 2969 2963 2958 2953 2947 2941 2936 2931 2926 2920 2914 2909 2905 2901 2897 2893 2888 2884 2880 2875 2871 2867 2864 2861 2858 2856 2853 2851 2848 2846 2844 2843 2841 2840
2998 2995 2992 2988 2984 2980 2976 2972 2967 2962 2957 2951 2945 2940 2935 2930 2925 2920 2915 2910 2906 2902 2898 2894 2890 2886 2883 2879 2875 2871 2868 2865 2862 2859 2856 2854 2851 2849 2847 2845 2843 2841 2839
2991 2988 2984 2981 2977 2973 2969 2964 2959 2954 2949 2945 2939 2934 2929 2924 2919 2914 2910 2906 2902 2899 2896 2892 2888 2885 2881 2878 2875 2872 2869 2866 2863 2860 2857 2854 2851 2849 2847 2844 2842 2840 2838
2984 2980 2976 2973 2969 2966 2961 2957 2952 2948 2943 2939 2934 2929 2925 2920 2914 2910 2906 2903 2900 2897 2894 2890 2887 2884 2881 2878 2875 2872 2869 2866 2863 2860 2856 2853 2850 2848 2845 2842 2840 2838 2836
2975 2972 2969 2966 2962 2958 2955 2950 2946 2942 2937 2933 2929 2924 2919 2915 2910 2906 2903 2900 2897 2895 2891 2888 2885 2882 2880 2877 2875 2872 2868 2865 2861 2858 2855 2852 2849 2846 2843 2841 2838 2836 2834
2967 2964 2962 2959 2956 2952 2948 2944 2940 2936 2932 2928 2924 2919 2914 2910 2907 2903 2899 2897 2895 2892 2889 2887 2884 2881 2879 2876 2874 2871 2867 2864 2860 2857 2854 2851 2848 2846 2843 2840 2838 2835 2833
2960 2957 2954 2951 2949 2946 2942 2938 2935 2931 2927 2922 2919 2914 2910 2907 2903 2900 2897 2894 2892 2889 2887 2884 2882 2880 2877 2875 2873 2870 2866 2863 2860 2857 2854 2851 2848 2845 2842 2840 2837 2835 2833
2953 2950 2949 2944 2942 2939 2935 2932 2929 2925 2922 2918 2914 2910 2906 2903 2900 2897 2894 2892 2889 2887 2884 2882 2880 2878 2876 2874 2871 2868 2865 2862 2859 2856 2854 2851 2848 2845 2842 2840 2837 2834 2832